Theta_e
300 300 300 300 299 298 298 298 298 297 297 293 287 288 281 280 277 287 290 290 288 280 274 276 274 272 274 278 276 278 276 275 277 276 278 275 278 275 274 273 272 274 273 273 273 274 271 273 271 273 274 274 277 281 281 282 280 281 280 285 286 288 280 277 278 281 281 282 284 284 284 284 282 283 283 282 279 280 278 279 281 277 278 277 277 274 281
299 300 299 299 299 299 298 298 297 297 297 290 288 283 281 281 280 282 289 290 287 277 269 269 271 273 272 274 274 278 276 275 274 274 276 274 274 274 274 274 277 273 276 275 271 275 267 273 273 272 275 274 281 279 280 281 277 278 276 275 280 276 279 278 275 275 274 277 280 280 282 282 280 280 282 283 283 283 282 281 280 275 277 278 277 272 279
300 300 299 299 299 299 299 298 298 297 297 293 288 281 282 280 282 282 284 286 284 274 276 273 271 272 269 269 270 272 273 276 276 275 274 277 275 274 272 274 275 274 275 273 274 275 273 270 274 274 274 274 279 279 280 281 278 280 282 282 283 275 274 277 272 269 268 267 268 269 273 276 280 282 282 282 281 280 279 275 276 273 278 279 277 277 284
300 300 300 299 299 299 298 298 297 297 296 295 287 284 280 278 271 279 278 282 281 280 281 277 274 271 269 268 270 272 270 274 276 276 274 277 276 276 275 276 276 274 273 271 270 271 275 271 271 273 272 275 278 279 279 279 279 280 281 282 280 273 276 276 275 275 274 277 280 282 283 280 277 279 281 281 282 283 282 280 277 273 278 278 279 280 282
300 299 299 300 299 299 298 298 297 297 297 296 286 284 281 279 274 274 272 276 277 275 278 276 276 271 274 269 271 269 270 272 273 277 271 276 275 275 274 274 271 271 272 270 270 272 271 274 273 272 273 275 277 280 278 279 280 281 280 281 278 273 271 272 273 273 272 273 273 278 283 279 280 280 279 282 281 281 279 277 274 281 278 274 282 283 281
301 299 299 300 299 299 298 298 298 298 297 296 287 279 279 272 277 278 279 273 270 271 273 275 274 275 275 271 273 271 270 271 269 274 276 276 277 271 271 273 274 273 271 272 267 269 269 271 269 273 273 273 274 274 278 277 279 280 278 280 275 272 269 273 274 271 273 274 275 277 278 281 282 281 281 280 281 281 278 278 280 281 276 274 282 283 282
300 299 299 300 299 298 298 297 297 298 296 295 285 278 280 280 278 278 279 273 275 274 275 276 274 273 274 272 272 270 270 269 272 272 272 273 272 274 267 270 273 273 274 272 269 270 265 266 271 270 270 271 272 271 274 276 279 278 277 277 278 274 270 272 273 270 272 273 275 276 276 277 281 282 282 282 281 280 280 280 281 281 280 282 282 283 283
301 300 299 300 299 298 297 298 298 297 297 292 284 283 277 276 275 274 278 277 275 276 276 275 274 271 274 270 271 270 270 269 272 274 272 269 271 275 270 271 272 273 273 273 269 270 271 270 268 272 271 271 272 271 272 272 277 277 274 275 276 273 268 274 271 269 269 273 275 275 275 274 272 278 282 282 282 282 282 281 282 282 281 283 283 282 282
301 300 299 299 300 298 297 298 297 296 296 283 283 281 285 283 284 281 274 273 274 275 274 273 272 271 272 270 272 272 272 270 273 272 275 272 270 272 270 272 272 273 273 272 271 274 273 273 272 273 273 269 274 271 271 275 271 274 274 274 273 275 269 273 270 267 267 271 272 273 274 273 272 272 275 280 281 279 281 280 282 281 279 281 281 280 281
300 300 300 298 298 299 298 297 298 296 295 285 283 279 286 285 285 281 278 271 277 273 275 273 272 269 272 272 272 272 271 273 274 270 275 275 275 274 273 273 272 271 271 270 272 275 275 275 276 277 277 278 277 276 276 275 273 272 272 275 272 272 270 268 268 266 265 270 272 270 271 271 269 270 274 277 281 282 283 284 284 284 284 281 278 279 286
299 300 300 298 299 298 298 298 297 297 293 286 283 282 284 281 279 279 278 271 273 274 274 272 270 273 274 275 273 275 273 274 274 268 269 274 274 277 275 273 271 270 270 273 278 279 279 278 278 278 277 276 275 276 276 276 276 275 273 272 272 272 270 268 271 264 264 269 270 271 268 262 263 278 284 283 280 281 280 280 282 285 285 283 286 286 288
299 299 298 298 298 298 298 297 298 296 295 289 288 285 285 284 283 280 275 270 272 276 273 271 272 273 273 274 274 273 272 272 272 275 270 272 275 276 275 274 273 268 276 280 280 279 280 279 278 278 276 274 273 275 275 274 275 277 277 273 271 270 270 268 270 265 264 267 269 266 260 261 277 281 280 282 285 284 282 283 284 285 286 286 286 287 288
299 300 299 299 299 298 298 298 297 297 296 292 286 283 285 285 281 278 277 274 270 272 271 272 275 274 275 274 274 273 274 275 276 275 275 273 273 275 275 274 272 273 280 278 279 277 272 270 271 272 272 273 273 273 273 273 273 275 276 276 273 270 269 269 268 268 269 267 265 259 260 275 278 277 279 281 281 283 283 282 284 286 286 287 285 287 288
298 299 299 298 299 299 298 297 297 298 297 294 286 284 285 284 278 277 277 273 272 275 274 273 274 273 274 273 273 274 274 274 275 276 272 275 273 273 276 277 277 280 280 279 276 274 270 271 266 267 267 268 267 266 268 272 272 273 273 274 275 272 271 270 266 270 263 264 266 264 272 272 272 274 276 277 276 279 280 276 281 286 288 287 286 287 288
299 298 298 299 298 297 298 297 298 296 297 296 291 288 286 284 282 279 280 277 272 274 275 270 273 273 274 273 274 271 271 272 272 272 275 276 274 276 277 279 280 279 280 276 272 272 269 268 263 263 264 263 259 261 267 263 270 274 274 274 275 275 269 271 266 265 268 265 263 264 264 261 267 276 279 282 282 282 283 281 280 287 288 289 288 287 288
298 299 298 297 298 299 297 296 298 297 296 296 291 288 287 286 285 284 280 276 273 268 272 276 276 274 272 272 274 271 270 271 271 272 271 272 273 275 277 279 280 280 278 275 272 270 269 264 262 262 260 261 264 261 259 264 264 269 274 274 274 274 274 272 268 266 267 265 262 262 261 264 275 276 280 283 286 284 285 280 276 286 288 289 289 288 288
299 299 297 298 299 298 299 298 296 298 297 296 290 288 286 288 285 282 279 277 275 270 277 278 277 276 274 272 273 271 272 270 272 268 267 269 271 273 275 278 280 278 275 272 271 268 266 265 265 264 265 266 262 261 265 262 262 264 270 272 271 270 270 270 266 265 266 265 264 262 267 266 274 278 280 284 283 285 282 271 271 277 274 279 281 285 288
297 298 298 297 297 298 296 298 298 297 298 297 292 288 286 286 284 283 280 276 273 273 277 279 276 273 272 272 271 274 275 273 272 273 270 272 271 272 271 273 272 276 277 269 270 267 265 265 262 262 262 268 267 267 259 265 262 263 264 266 266 267 268 268 264 266 266 267 264 268 269 275 279 279 281 283 284 282 272 267 275 277 277 280 282 282 284
297 297 298 298 297 297 298 296 296 296 297 297 292 289 287 287 284 283 280 276 275 270 277 281 281 277 278 279 275 275 276 274 273 270 270 269 271 274 274 270 276 268 273 269 269 266 265 265 268 266 263 265 266 262 267 263 263 267 267 265 264 266 267 268 268 265 264 266 264 265 270 277 281 282 281 284 280 270 269 278 279 277 279 281 281 281 283
297 296 296 297 298 296 296 296 296 297 297 296 294 286 287 286 284 283 280 275 276 274 277 278 279 276 279 275 273 272 273 274 274 272 270 267 275 275 272 268 272 271 269 271 266 269 265 263 265 268 264 265 266 269 265 266 269 266 266 268 265 266 264 264 265 268 268 267 264 264 261 273 280 282 279 281 275 275 279 278 279 281 281 281 281 282 283
296 296 297 296 296 297 296 296 295 296 297 296 293 288 285 287 285 284 285 282 276 273 274 281 281 279 280 278 279 278 275 272 273 271 273 273 276 273 264 265 270 270 267 268 264 266 267 265 267 266 268 267 268 266 262 264 265 271 270 268 267 271 264 265 267 270 264 264 263 264 272 275 275 280 275 279 277 281 280 280 278 281 280 280 281 282 283
296 295 296 297 296 296 296 297 296 294 296 297 294 289 284 286 285 285 285 284 278 275 277 281 283 281 282 283 282 281 280 279 279 279 275 273 275 274 273 274 272 272 271 272 267 267 269 269 269 265 264 266 269 265 266 263 262 267 270 270 263 271 268 269 265 271 268 266 270 275 274 275 279 279 280 279 281 283 282 281 280 280 280 283 282 281 283
295 294 294 294 295 295 296 296 296 296 294 295 293 288 285 286 285 286 284 278 280 281 282 280 281 281 283 283 285 284 283 284 282 281 280 275 273 275 273 273 272 275 272 274 270 270 270 269 266 269 267 268 266 265 266 266 264 267 265 272 270 274 274 274 271 271 275 276 276 278 278 278 279 281 281 281 282 283 283 282 280 281 283 283 282 283 284
293 294 295 295 294 295 295 295 297 294 294 295 294 287 285 286 285 283 281 280 277 273 276 278 276 274 275 276 281 284 284 283 283 283 284 280 272 272 276 276 277 273 271 273 277 272 270 269 269 270 265 268 269 266 263 263 265 269 268 268 271 273 275 272 269 272 270 265 277 276 277 279 279 280 281 282 283 283 283 282 282 283 284 284 284 284 284
294 293 294 294 293 294 294 295 295 295 294 294 293 292 289 286 285 283 279 273 274 272 268 273 274 279 281 283 284 282 283 284 285 284 282 281 277 273 272 277 279 275 273 275 275 273 270 268 268 267 265 270 270 265 270 266 266 271 266 268 269 269 276 271 271 270 268 269 274 276 278 278 279 278 279 280 282 283 283 283 284 284 285 285 285 285 284
293 293 292 294 294 294 294 294 295 295 296 294 293 287 284 284 285 284 283 282 278 275 269 269 273 282 283 281 279 281 284 284 283 283 282 282 281 280 278 279 279 280 278 277 275 272 271 270 270 270 267 268 274 268 267 270 269 272 269 268 272 272 274 267 272 269 272 275 276 275 275 276 277 279 281 282 283 283 283 283 283 284 284 284 284 284 284
293 293 293 291 293 294 295 295 295 294 292 294 292 287 286 284 284 282 279 278 274 270 272 269 274 277 279 278 281 283 283 282 282 281 281 282 281 281 280 278 276 277 276 275 276 274 272 270 269 267 269 269 272 269 271 269 269 268 268 271 274 272 268 272 271 267 267 268 271 274 270 270 275 279 280 281 283 284 283 284 283 284 283 283 282 282 283
292 292 291 292 292 294 294 295 294 294 294 292 290 288 285 282 282 283 283 282 277 271 271 271 271 272 274 272 281 282 282 282 281 281 280 280 281 280 279 277 277 275 275 274 271 270 270 268 267 272 272 273 270 267 271 272 272 269 269 270 273 271 271 272 268 268 267 273 275 276 276 276 277 279 280 280 281 283 282 283 283 282 282 281 280 279 280
291 290 291 292 291 291 292 293 293 294 292 292 287 284 279 281 282 284 284 284 282 277 275 275 275 271 269 273 279 278 281 281 280 280 280 280 279 279 278 278 276 276 275 275 274 273 271 271 273 271 269 274 271 268 269 265 265 264 268 273 274 275 276 274 274 274 275 276 277 278 277 275 278 279 279 281 282 282 281 281 280 280 279 278 278 278 280
289 290 289 289 292 292 292 291 293 293 293 286 280 277 275 276 281 282 284 284 282 280 273 271 268 271 275 275 274 277 277 279 280 279 278 278 278 278 278 277 276 277 276 274 273 269 272 272 273 274 274 277 270 270 266 267 266 268 273 274 275 275 276 276 277 274 273 277 278 278 278 278 279 280 281 279 278 279 279 278 277 277 276 276 276 279 280
290 290 289 288 290 290 290 290 290 291 291 282 278 272 271 269 276 284 286 284 284 279 275 274 270 274 270 272 275 276 277 278 277 277 277 278 278 278 279 279 278 278 273 274 273 273 273 270 271 272 275 275 273 269 267 266 265 267 272 274 275 275 275 276 277 278 277 277 279 279 278 278 279 278 277 276 275 274 274 275 275 275 274 274 276 278 276
290 289 288 288 288 288 289 289 289 287 282 280 277 274 273 275 279 282 285 285 283 278 272 269 268 268 268 271 273 274 277 278 277 276 277 278 275 278 277 277 275 278 277 273 274 273 271 273 272 272 271 275 275 269 269 267 265 266 272 274 275 276 277 277 277 278 278 279 278 276 276 277 278 277 276 275 273 272 272 273 273 272 272 274 275 275 273
289 289 287 287 288 288 287 287 287 286 282 284 286 287 286 286 286 286 285 282 280 275 275 270 266 268 267 266 265 267 273 274 273 275 272 277 273 276 273 277 276 276 280 275 271 270 273 272 273 271 273 276 271 269 267 266 267 272 273 275 275 276 276 277 277 277 275 273 275 273 273 275 273 273 274 272 271 270 270 271 270 271 271 272 270 270 270
288 289 287 286 287 287 286 286 285 283 283 280 274 278 280 283 283 284 281 279 275 273 272 269 266 266 266 267 265 270 275 271 267 272 268 274 276 274 272 273 275 272 274 271 273 272 274 273 270 271 274 271 273 269 265 268 272 273 274 275 276 276 277 276 276 272 269 268 266 268 270 271 273 273 271 270 269 269 269 270 268 267 268 269 268 268 268
286 288 288 286 286 286 285 284 278 278 274 275 276 279 281 285 284 284 281 278 271 270 268 267 269 264 263 263 262 267 266 270 268 271 269 270 277 273 274 271 273 268 271 276 272 271 270 270 274 269 267 272 269 265 267 270 272 274 274 274 276 276 273 272 270 266 266 266 266 268 269 271 271 269 268 267 266 266 266 266 266 265 265 266 266 266 266
286 285 287 285 285 283 280 281 278 274 272 273 274 281 285 285 284 282 276 275 276 270 268 267 268 265 265 261 260 265 272 267 267 268 269 271 272 274 274 272 267 270 274 272 268 271 269 275 272 266 271 267 266 268 270 271 272 273 273 268 260 263 265 266 265 261 262 264 265 266 267 266 266 265 264 263 263 263 264 264 263 263 262 262 263 263 263
286 284 283 283 277 276 270 271 278 277 275 279 281 284 283 282 278 278 276 275 276 276 270 267 265 264 265 264 260 261 265 265 265 266 267 268 268 271 271 269 266 272 268 267 269 268 272 277 270 267 267 265 267 259 256 255 257 257 256 256 258 258 259 260 259 260 261 261 261 263 263 263 262 262 261 260 261 261 261 261 261 260 259 259 260 260 261
285 282 275 274 270 264 264 271 272 278 283 282 281 276 273 273 268 272 273 270 273 274 269 269 266 264 263 265 263 270 269 265 263 266 263 262 266 264 270 269 269 270 263 266 269 274 271 269 268 266 268 262 255 255 255 254 256 256 256 256 256 257 256 257 258 260 262 262 262 260 260 260 259 259 259 258 259 259 260 260 260 260 259 259 259 260 260
280 275 272 270 267 265 268 268 280 282 280 279 275 268 266 265 265 265 267 269 269 267 271 268 265 266 265 265 266 273 270 264 262 261 262 268 267 261 267 262 269 270 264 263 265 275 266 266 268 267 267 261 257 252 253 255 254 254 255 255 255 255 256 255 256 256 258 260 259 258 259 260 259 257 257 257 259 259 259 259 258 258 258 258 258 259 259
272 272 270 267 268 271 278 278 281 278 276 270 267 264 260 265 264 259 260 262 264 267 267 264 269 267 267 265 265 265 273 265 263 261 263 264 272 263 265 265 267 266 259 262 264 271 266 262 265 264 265 260 251 252 253 253 253 252 253 253 254 254 255 255 254 256 257 257 257 256 256 256 257 256 256 256 257 256 257 257 257 257 256 257 258 258 258
274 271 271 270 270 267 272 276 273 268 268 266 267 264 259 258 261 259 262 260 259 262 264 264 266 266 269 268 267 264 271 272 265 265 264 263 270 269 261 260 268 262 258 258 265 266 265 263 263 263 261 250 252 253 253 252 252 252 252 252 252 253 253 254 254 254 254 255 255 255 254 253 254 255 256 255 255 255 255 255 255 255 255 255 255 256 259
275 275 275 276 276 275 273 271 270 269 268 265 259 258 260 259 258 260 261 258 256 256 264 266 264 265 265 268 268 269 269 271 270 269 267 263 270 265 261 261 263 260 257 263 263 262 263 261 259 261 251 250 250 251 251 251 251 252 251 251 252 252 252 253 253 253 253 253 253 253 253 252 252 254 254 253 253 253 253 254 253 254 254 255 256 257 257
279 279 275 268 269 268 264 261 262 263 261 261 260 256 255 253 255 255 255 259 258 260 263 265 265 269 270 270 267 270 269 274 269 268 266 264 272 267 261 259 258 255 261 261 261 261 260 258 258 257 246 248 247 249 249 249 250 252 251 251 251 252 252 252 252 252 253 252 252 252 252 252 252 253 253 252 251 251 251 252 253 253 253 254 255 256 256
275 273 267 262 261 261 263 259 267 263 259 257 256 254 254 253 258 259 257 259 261 262 262 261 262 262 262 266 264 266 269 269 273 267 266 266 264 261 261 258 259 262 262 260 258 258 259 256 253 249 246 244 245 247 248 248 249 249 251 251 251 250 251 251 251 251 252 252 252 252 253 252 252 252 251 251 251 250 250 251 252 253 253 253 254 255 255
265 260 254 256 257 261 260 257 260 258 254 256 261 255 255 255 256 253 257 258 259 260 261 261 260 259 260 263 263 264 268 264 270 264 262 264 261 260 259 260 260 259 259 257 256 256 256 255 250 246 245 246 246 245 246 247 246 247 248 249 249 248 248 248 248 249 250 250 250 251 252 252 252 251 251 250 250 250 250 249 251 251 252 252 253 254 254
257 255 252 255 256 256 252 250 253 255 256 256 255 256 256 256 256 257 257 257 256 257 257 257 257 258 260 261 260 261 260 262 262 262 263 262 260 258 262 262 262 258 257 257 255 255 255 254 252 251 250 247 245 244 242 243 244 245 247 246 247 246 246 245 246 247 248 248 249 250 250 251 251 249 249 249 249 249 250 250 251 251 251 251 251 252 253
260 261 256 252 253 254 254 254 255 256 255 256 257 257 257 257 257 257 255 254 255 255 254 254 253 256 257 259 259 259 257 255 257 258 260 259 259 260 263 261 257 255 255 253 253 253 254 253 251 250 248 248 245 243 243 244 243 243 244 245 245 246 246 245 246 246 247 246 247 247 247 247 247 247 248 248 249 249 249 249 249 250 250 250 251 252 252
256 259 258 256 256 256 255 255 256 256 256 256 257 257 257 256 257 256 255 254 253 253 252 253 255 255 257 258 257 258 256 255 257 258 260 260 261 255 255 254 254 253 253 253 253 255 254 251 250 250 249 248 245 245 245 245 245 245 245 245 246 246 245 245 245 246 246 245 246 246 246 246 245 246 247 247 247 248 248 248 249 249 250 250 251 251 251
260 255 255 254 255 252 254 256 257 256 255 255 256 256 256 256 255 254 253 252 251 251 250 252 254 254 254 255 255 257 259 260 256 254 255 253 254 254 252 251 250 250 253 254 254 253 251 250 248 246 246 247 247 246 247 246 246 245 245 245 245 245 245 245 245 245 245 246 245 246 246 246 245 246 246 246 247 248 248 248 248 249 249 249 250 250 250
261 258 259 256 255 254 253 251 253 253 253 253 253 252 253 254 253 253 252 251 249 248 250 254 259 257 253 252 249 248 251 253 256 255 251 250 250 250 249 246 248 251 254 254 252 250 249 248 248 248 247 246 247 246 246 246 247 247 246 245 245 244 245 244 246 246 245 245 246 246 245 246 247 247 246 247 247 246 247 248 248 248 248 249 249 249 249
261 258 256 257 254 252 252 250 250 248 250 251 250 251 251 250 251 251 253 250 249 250 251 251 249 250 251 249 248 248 253 257 256 253 252 251 250 249 249 250 252 253 252 250 248 247 247 248 247 248 247 246 246 246 245 245 245 245 244 244 244 244 245 245 245 246 246 245 245 247 246 246 246 247 247 247 247 247 247 248 248 248 248 249 249 249 249
256 255 254 256 256 254 253 254 253 252 251 250 250 252 251 250 250 251 252 249 248 252 252 250 252 252 250 251 251 251 254 254 252 251 250 248 248 249 249 251 251 250 248 248 248 247 247 246 245 245 244 245 245 244 242 243 243 243 243 243 243 244 245 245 245 245 245 245 245 245 245 246 246 246 247 247 246 246 247 247 248 248 249 249 249 250 249
Wind_Speed
22 22 19 19 19 19 18 17 16 14 11 3 1 2 3 5 10 3 10 7 7 3 8 6 5 6 7 5 6 9 10 9 7 9 9 9 7 8 8 8 8 9 8 9 10 9 8 6 6 8 11 15 17 6 5 7 8 7 9 10 7 9 7 8 10 5 1 7 4 1 1 5 10 10 6 8 13 16 15 7 2 3 3 10 6 10 7
23 23 22 20 19 19 17 16 16 14 10 3 3 3 5 5 8 6 2 6 8 7 7 5 7 9 4 8 10 7 7 3 5 8 8 6 4 6 6 4 7 8 5 5 9 9 9 5 9 9 9 11 5 11 6 8 3 4 4 6 8 7 2 9 7 6 3 4 5 2 1 3 8 10 14 15 12 13 4 4 1 2 12 12 12 16 10
23 23 22 21 19 18 17 15 15 14 10 9 5 4 2 5 6 10 5 4 9 9 6 8 9 8 4 2 7 9 7 7 13 13 12 10 9 6 7 12 10 8 6 8 7 8 10 12 10 13 15 16 12 8 3 7 6 1 5 9 8 3 10 8 11 12 10 11 11 11 11 15 11 14 15 13 14 12 8 11 6 9 9 17 12 9 10
24 22 22 22 20 18 17 16 15 16 15 9 5 4 1 3 6 2 2 6 7 10 8 8 7 6 6 7 10 9 10 7 10 12 11 12 12 12 12 11 10 11 9 10 9 13 14 12 6 7 10 9 2 1 10 9 9 7 13 7 1 3 8 9 10 11 15 10 7 9 12 11 14 13 17 18 18 19 16 6 10 11 7 14 14 14 15
25 25 23 22 22 20 19 17 16 14 14 13 6 2 3 1 6 3 4 1 8 6 7 7 8 8 8 6 6 9 12 6 4 11 5 8 11 7 9 9 7 7 10 11 10 11 12 12 13 13 17 15 12 7 10 11 10 12 7 3 0 2 6 9 11 14 10 13 15 16 12 18 19 21 23 20 21 21 19 15 14 11 12 19 7 16 17
24 26 24 23 23 21 20 19 16 15 15 13 7 6 4 1 2 4 4 6 3 4 8 12 11 12 10 9 4 7 7 8 7 5 10 5 5 4 2 9 13 15 14 11 8 5 8 9 11 12 11 14 10 9 7 7 7 5 4 2 3 3 9 12 10 13 13 13 14 15 14 13 19 23 22 24 23 23 23 20 17 19 15 15 13 22 23
26 27 25 24 24 23 21 21 18 15 17 10 8 4 4 6 1 3 3 4 6 12 9 14 14 13 14 7 10 10 11 14 12 10 5 4 6 10 10 10 13 15 13 11 11 11 9 8 8 8 9 11 13 10 5 5 6 4 3 1 3 3 6 9 6 15 17 16 14 14 15 13 15 22 24 24 25 27 26 25 24 24 18 16 21 18 24
26 27 27 25 25 24 24 22 19 18 16 8 9 9 6 5 4 6 5 10 9 8 8 8 11 11 14 11 10 10 12 15 11 9 10 11 14 11 15 14 13 15 15 12 12 12 12 12 11 10 13 13 10 14 13 10 3 1 7 4 1 4 7 7 9 9 16 13 11 11 12 13 16 16 19 24 25 26 27 24 25 25 23 20 22 25 23
27 28 29 27 25 26 25 23 19 19 8 4 7 6 11 5 8 4 3 8 9 10 9 9 12 11 11 13 12 12 15 17 15 12 10 15 11 8 15 14 16 14 12 11 13 12 15 15 16 15 12 13 9 9 8 9 12 8 9 2 5 3 5 6 5 8 14 8 9 14 13 16 16 14 17 18 22 24 22 21 20 20 22 24 26 23 20
28 29 28 29 28 26 26 25 19 19 15 8 6 8 8 6 2 3 4 6 8 9 8 12 7 11 11 12 14 12 18 19 11 11 12 17 18 16 15 15 10 8 10 15 16 18 16 15 13 11 11 9 8 8 13 15 14 10 10 6 5 2 6 8 5 9 13 13 10 14 17 14 13 10 12 15 17 13 17 21 22 26 23 22 21 21 16
30 29 28 29 28 28 29 25 23 23 13 9 8 6 8 11 8 4 5 7 5 10 9 10 13 10 8 16 16 16 14 13 12 14 7 11 17 19 17 16 13 14 14 17 20 15 6 6 5 5 8 10 11 8 11 16 14 13 9 9 6 6 7 9 8 5 10 16 13 10 11 14 10 6 7 10 15 16 20 19 22 23 21 17 16 17 17
30 30 31 31 31 29 26 28 25 26 19 12 10 10 7 2 4 6 7 8 12 8 10 10 13 11 15 18 15 15 17 17 18 17 17 11 12 11 12 14 12 12 14 19 13 7 6 2 3 6 7 9 12 14 16 18 17 14 13 12 11 11 10 11 8 9 11 14 14 11 15 13 6 1 8 12 14 16 19 19 22 22 22 20 19 17 18
30 31 29 30 30 30 30 27 29 26 26 13 9 12 9 10 9 7 6 9 9 10 13 16 17 21 16 13 13 16 19 19 18 19 16 15 13 12 13 11 13 17 15 7 4 2 4 9 10 10 12 9 10 13 16 18 18 19 17 15 12 11 11 8 9 7 9 12 12 12 8 5 14 16 14 10 10 13 17 20 21 22 23 22 23 24 23
32 30 32 33 32 29 30 31 31 27 28 21 9 11 8 11 10 9 9 4 9 11 17 12 10 13 14 18 19 21 16 17 16 16 14 15 17 18 17 14 18 16 8 4 4 5 8 6 11 9 9 6 7 7 10 16 19 20 21 19 15 15 12 10 10 8 13 12 16 16 11 18 16 13 13 10 9 8 11 17 19 23 21 22 22 24 24
32 34 33 32 32 34 33 29 30 31 30 28 13 10 11 12 12 8 6 7 9 10 9 11 9 17 20 18 15 14 11 10 10 13 17 12 10 15 18 15 12 13 8 5 6 7 8 5 5 6 8 9 8 6 2 4 7 19 22 19 17 16 14 10 12 11 11 13 15 12 10 16 13 10 15 14 16 15 15 14 18 15 22 23 22 25 26
34 32 33 35 33 30 33 33 30 30 31 31 15 13 12 13 14 11 9 8 6 10 12 18 19 12 14 15 14 14 12 11 13 12 10 11 15 15 14 15 12 7 6 6 6 7 6 8 9 9 10 10 7 3 2 3 4 4 13 17 16 16 16 14 15 11 11 14 14 12 13 12 8 11 8 9 7 11 11 11 17 11 14 15 20 23 23
32 32 35 34 33 33 32 31 33 30 30 32 16 12 12 14 14 14 10 6 8 12 12 10 10 14 9 7 6 10 12 13 12 9 10 12 13 13 8 5 5 9 11 7 8 7 7 7 9 11 10 6 6 6 6 1 2 3 4 10 12 13 11 13 15 16 14 12 14 16 8 9 6 12 11 2 9 10 9 14 1 10 14 13 18 15 21
35 33 33 37 35 33 33 31 30 33 29 32 22 12 12 9 14 11 8 8 9 9 11 15 12 8 11 12 12 9 4 4 7 7 8 5 4 7 5 3 4 5 11 9 8 9 9 11 12 11 14 9 6 4 11 7 8 7 9 10 9 9 9 11 15 14 18 22 15 11 10 7 8 13 13 9 7 6 12 13 5 11 11 13 13 15 16
35 34 33 35 37 35 31 30 34 33 30 31 20 14 11 12 14 14 9 7 7 9 12 15 14 15 13 5 8 6 5 9 8 6 6 7 9 12 9 2 4 3 9 11 12 10 9 10 9 9 9 8 6 9 6 11 11 9 10 10 10 11 9 8 11 13 14 13 17 14 10 6 5 7 4 6 4 11 11 2 0 4 10 14 12 13 13
35 36 36 35 33 34 35 32 32 31 30 32 20 12 13 9 16 20 13 11 8 12 10 10 11 18 13 12 10 10 6 7 10 11 12 14 4 7 3 6 3 3 4 6 10 8 8 11 11 6 11 10 9 4 9 12 9 9 6 12 12 10 10 12 11 8 10 11 13 14 15 4 8 10 2 2 8 2 5 2 3 3 6 9 12 11 11
35 36 35 35 36 33 31 33 33 31 28 31 26 11 11 11 16 19 17 15 7 5 9 14 12 16 13 15 18 18 14 15 13 13 13 13 5 7 8 7 9 8 8 7 10 12 8 12 12 9 6 8 8 4 8 9 10 12 12 10 12 11 13 10 11 7 8 12 11 8 4 2 5 7 7 4 2 1 2 1 6 4 2 7 9 11 10
36 36 34 33 35 34 33 32 31 31 30 28 27 14 12 10 12 14 16 13 8 11 8 6 12 13 14 16 16 15 18 20 18 13 7 9 7 11 7 4 5 5 3 4 1 2 5 5 4 2 7 8 6 12 8 10 11 6 13 12 13 10 11 9 12 7 9 7 5 4 3 6 2 4 2 1 4 1 3 0 5 6 4 5 4 9 13
36 39 38 36 35 35 34 32 31 30 30 29 24 11 13 10 8 14 13 10 6 3 2 3 2 2 4 11 15 15 15 12 13 13 13 10 9 9 11 10 10 5 2 5 9 9 8 9 9 6 8 9 9 10 10 11 9 6 8 10 13 9 10 5 2 7 8 10 10 7 2 3 4 2 1 4 2 5 4 6 5 5 5 5 5 6 10
37 37 36 37 37 34 32 35 34 31 32 28 22 11 12 10 7 8 7 9 11 6 4 5 5 8 11 18 22 14 12 16 18 15 11 12 12 10 7 7 7 3 4 10 11 9 3 3 5 4 9 4 6 10 10 10 11 9 8 8 4 10 8 6 6 4 4 4 4 3 5 3 3 5 4 4 6 5 5 5 6 7 6 5 4 4 6
38 38 37 36 37 35 33 32 32 30 30 31 25 12 7 7 9 13 12 8 6 8 7 7 13 13 15 15 6 8 16 14 12 14 13 13 14 13 15 15 13 12 13 11 2 1 1 6 3 4 12 7 8 13 9 11 9 7 10 9 5 8 6 11 11 12 11 10 9 4 4 7 7 8 6 7 8 8 7 7 7 7 7 6 5 5 7
37 37 36 35 35 35 33 34 32 31 30 30 23 10 7 13 10 11 9 6 1 2 4 6 5 10 6 8 14 16 11 13 14 15 16 16 17 19 18 11 5 8 9 5 6 9 8 7 6 5 7 6 8 10 11 11 9 7 10 10 8 5 3 4 4 6 7 8 8 11 14 13 13 9 9 6 5 6 6 7 7 7 7 5 6 4 6
33 33 34 35 35 35 34 34 31 30 33 29 16 10 11 7 10 14 12 9 5 3 6 6 6 2 7 14 12 8 9 11 13 14 16 17 17 17 15 14 10 7 7 8 6 7 5 6 8 9 8 6 5 6 4 4 5 6 9 8 6 7 11 10 10 10 10 10 11 8 9 8 5 7 7 7 6 5 7 6 7 7 5 6 7 8 7
32 32 32 32 33 34 34 34 31 30 27 27 18 11 5 8 8 10 9 10 14 9 3 4 2 4 3 6 10 7 10 11 12 13 14 16 19 17 17 14 13 12 11 10 7 6 6 9 10 7 6 6 7 8 7 10 6 8 12 10 9 12 14 12 13 12 13 12 15 12 12 14 10 6 5 5 5 6 7 7 6 5 5 6 7 8 9
31 30 29 28 29 30 33 33 32 27 26 22 7 3 2 4 7 10 11 10 8 6 6 5 1 4 5 3 4 8 10 11 11 12 12 13 16 17 17 17 15 13 10 8 9 8 6 8 7 7 5 6 6 7 7 10 10 13 11 12 15 16 17 18 17 15 14 13 11 9 8 9 7 4 7 2 2 1 2 1 1 3 4 6 6 6 7
31 30 30 28 26 26 27 30 30 27 21 2 6 2 0 2 8 9 11 9 8 4 4 4 6 5 1 1 6 5 8 10 11 12 14 11 12 16 15 14 14 12 10 10 8 7 9 7 7 6 5 6 6 2 6 7 11 10 12 17 19 18 18 17 18 16 14 14 14 8 5 7 8 5 3 4 3 2 1 1 3 3 3 5 6 6 5
33 31 27 25 23 23 24 24 23 23 19 3 4 3 5 5 2 8 14 11 9 6 2 3 5 1 1 2 3 10 11 9 10 12 14 13 12 13 12 12 11 11 10 10 9 10 7 7 8 10 7 11 9 7 8 10 11 9 11 15 17 19 18 18 17 17 16 15 12 9 7 9 5 6 3 3 4 3 2 2 3 3 5 5 4 5 5
33 30 27 23 20 19 20 23 22 16 7 4 4 3 2 1 1 4 12 10 9 5 3 3 1 2 1 1 2 3 6 10 8 4 4 7 10 10 10 10 10 11 13 11 10 7 9 9 10 10 10 12 13 6 9 11 13 10 10 16 16 16 15 15 15 13 12 9 7 8 9 10 4 6 5 3 3 3 2 0 3 5 5 3 3 3 4
29 27 24 21 17 14 14 14 16 11 4 2 4 5 2 2 4 8 8 8 5 3 2 3 3 2 1 3 2 1 3 3 1 5 4 7 6 6 8 10 10 8 11 8 5 6 7 9 9 12 12 8 5 2 8 10 12 12 17 17 17 14 15 13 12 5 3 3 4 10 11 8 6 3 5 4 4 3 3 2 3 4 3 2 2 2 4
27 25 21 19 16 15 14 12 9 5 3 3 3 3 2 6 4 4 10 4 2 1 2 2 3 4 3 1 1 1 5 5 3 5 2 3 4 5 7 6 9 6 7 9 7 5 6 7 11 10 6 8 9 6 8 10 13 16 19 20 19 16 10 9 6 5 3 3 3 2 4 4 4 5 5 4 3 4 4 3 4 4 2 2 4 5 5
29 24 18 18 16 15 15 8 4 4 1 1 1 1 2 9 9 6 7 4 3 1 2 1 2 1 0 1 2 4 1 2 4 5 5 1 4 6 5 5 7 8 6 6 7 10 7 8 7 8 9 7 10 9 7 10 16 16 15 18 15 7 2 3 3 3 3 2 2 3 3 3 7 4 3 3 4 5 6 4 6 6 4 3 4 6 8
28 26 15 14 13 10 3 2 2 2 2 1 1 4 11 10 7 3 5 2 0 1 2 2 3 4 4 6 2 3 1 2 1 2 1 1 1 1 2 4 4 6 1 6 7 8 10 6 5 7 8 8 7 8 11 12 15 18 10 3 7 5 3 3 4 4 3 3 3 4 5 5 6 5 4 4 3 5 5 5 5 6 4 4 4 5 6
27 15 10 8 3 1 1 0 3 2 1 3 5 8 9 5 2 4 3 1 1 1 2 2 3 5 7 4 0 3 3 5 0 1 0 2 3 2 4 3 5 3 1 3 6 9 9 10 8 8 7 8 8 5 8 7 7 6 5 3 6 6 4 4 4 2 6 4 4 4 3 4 5 4 3 4 4 4 5 6 7 7 7 8 7 6 6
11 5 3 2 3 2 1 2 1 6 8 8 9 3 5 6 1 2 0 1 1 3 1 2 6 1 2 3 3 2 3 4 2 4 2 1 2 1 2 4 4 4 5 4 5 3 3 3 6 7 9 3 7 7 7 7 7 7 7 7 6 6 6 5 7 1 5 3 2 1 2 3 3 3 3 3 4 5 5 4 4 4 5 6 6 7 8
4 1 2 2 1 0 1 2 4 8 3 3 3 1 2 1 2 0 1 0 0 2 3 4 4 3 3 5 4 1 4 3 2 0 2 2 2 3 1 2 2 5 3 1 4 6 5 3 4 6 10 5 3 6 6 7 8 8 8 7 7 6 6 6 8 8 4 3 4 5 3 1 1 2 3 2 3 3 3 4 4 4 5 6 7 8 8
4 4 2 2 1 1 2 3 8 5 2 0 2 2 0 1 1 2 1 1 2 1 1 4 1 3 6 8 6 6 2 3 5 3 3 2 1 2 1 0 2 2 3 4 2 2 4 3 2 2 7 3 3 5 5 6 7 8 8 7 8 7 7 7 7 6 6 6 6 6 6 5 4 2 2 2 3 3 4 3 3 4 5 6 8 8 8
2 1 1 2 3 1 1 2 2 2 1 1 0 1 1 1 1 0 0 0 1 1 0 1 2 0 2 3 3 6 2 3 1 2 2 3 1 3 2 2 1 2 1 2 0 1 1 1 2 4 1 2 2 5 5 6 6 7 7 7 7 7 8 7 7 7 7 6 5 5 5 4 4 3 3 3 3 2 3 4 5 5 7 7 8 8 8
6 6 3 2 1 1 1 1 2 1 1 1 2 0 0 1 1 1 1 1 1 1 2 1 2 0 1 0 2 2 2 0 1 1 3 5 3 3 1 1 1 1 2 2 2 1 1 3 2 3 3 2 7 5 6 5 6 6 8 8 8 8 7 7 6 7 6 4 4 3 4 5 5 4 5 5 4 4 6 7 8 8 8 7 7 7 7
18 9 2 1 1 1 1 1 1 1 1 0 1 1 1 1 1 1 1 0 1 0 1 1 2 4 3 1 3 3 2 0 2 2 3 2 0 1 2 0 1 1 2 2 1 1 2 2 3 1 2 3 4 5 5 5 5 4 5 7 6 7 7 6 5 5 5 5 5 4 4 5 5 4 4 6 7 6 6 4 6 8 8 8 8 7 7
6 1 1 2 1 1 0 1 0 0 1 1 1 0 0 1 1 1 1 2 4 1 3 4 4 3 0 1 1 0 1 2 3 1 1 0 1 1 1 2 3 1 2 1 1 2 2 1 1 1 2 4 4 3 4 4 5 3 3 6 7 6 6 6 6 6 6 5 5 4 4 4 3 4 6 6 6 5 6 6 6 7 7 7 7 7 7
0 3 2 1 1 1 0 1 2 2 1 2 2 0 0 1 2 0 1 3 3 3 6 2 3 2 2 2 0 1 2 2 2 1 1 1 0 0 1 0 0 1 1 2 0 0 1 1 1 1 1 1 2 3 4 5 4 5 4 4 7 7 6 6 6 4 5 5 5 4 4 3 4 5 6 5 5 5 5 5 6 7 7 6 6 7 8
3 0 1 2 2 2 2 0 1 2 1 1 1 1 1 1 1 1 2 3 3 5 5 6 6 3 2 1 0 0 1 1 1 0 0 0 0 0 0 0 1 1 0 1 1 1 1 2 2 2 2 0 1 2 2 4 5 5 6 7 6 8 8 7 4 6 4 5 5 4 4 4 4 4 5 6 6 6 6 6 6 7 6 6 7 7 7
1 1 2 1 2 1 1 2 2 1 1 1 0 1 1 2 1 1 1 2 3 4 5 4 3 2 2 3 2 1 1 1 0 2 0 0 0 1 1 1 0 0 2 1 1 1 1 2 2 2 2 1 2 4 3 4 5 5 4 4 5 7 8 8 7 8 7 6 4 5 4 4 3 3 3 6 7 6 6 6 7 6 6 6 6 6 6
1 1 0 1 1 0 3 1 1 1 1 1 1 2 1 0 1 2 5 4 5 3 4 5 2 2 1 1 1 0 2 0 1 1 0 0 1 1 1 2 1 2 1 2 1 0 1 1 1 2 1 2 1 2 3 4 4 5 4 5 4 4 4 5 5 6 6 5 4 4 3 4 3 4 5 4 6 6 7 6 6 6 7 6 6 7 7
1 2 2 1 0 2 1 1 1 2 5 5 4 6 6 6 3 3 4 3 3 4 3 1 0 1 1 1 1 1 0 1 0 1 2 2 1 0 0 0 1 2 1 1 1 2 2 2 1 1 1 2 3 3 2 2 3 3 4 4 4 4 3 4 3 4 4 4 3 3 4 3 3 3 3 4 5 5 4 5 6 7 7 7 7 7 8
4 3 4 4 3 1 1 1 3 3 4 5 5 5 5 3 4 3 3 7 4 4 2 3 3 1 2 1 1 2 0 1 1 1 3 1 1 1 1 2 0 1 1 2 2 2 2 1 2 3 4 3 3 3 3 3 3 3 3 4 4 4 5 3 4 4 5 4 4 4 3 4 5 4 4 4 3 3 5 7 7 7 7 7 7 7 8
2 4 3 2 2 2 4 3 2 1 5 5 5 5 5 4 4 6 5 5 6 3 3 2 1 1 1 2 1 1 0 0 1 3 2 1 1 1 1 2 0 1 1 1 1 2 2 2 2 3 3 4 4 4 4 3 3 4 5 6 6 5 5 3 3 5 4 6 5 7 8 6 6 5 5 4 4 4 5 5 6 6 5 5 7 8 7
2 3 2 1 3 4 3 2 3 3 3 1 2 3 3 4 6 6 5 4 2 4 1 1 0 1 2 1 0 1 2 1 1 1 4 2 1 2 1 2 2 2 2 3 3 2 1 1 1 3 2 3 4 4 4 4 3 5 5 5 5 5 5 5 4 4 4 7 8 7 7 7 7 6 4 5 5 5 5 4 5 7 6 4 5 6 8
Wind_Direction
297 295 290 292 294 295 297 294 295 296 297 295 181 171 244 212 254 153 161 182 160 219 258 238 217 226 242 258 273 254 268 262 266 276 270 272 247 262 242 241 244 241 243 247 249 251 267 277 267 270 269 273 274 272 49 357 347 328 306 265 249 245 251 227 231 206 326 23 20 17 12 207 218 231 232 204 202 199 209 219 350 235 171 217 220 234 233
294 292 291 290 290 290 291 292 292 287 277 169 146 198 235 251 265 269 135 180 187 219 231 240 235 242 220 224 246 233 251 255 271 249 246 221 242 240 258 275 222 270 264 274 269 275 288 221 239 254 249 262 275 307 19 18 19 10 311 342 336 301 228 220 229 213 165 222 223 206 231 225 220 203 211 215 213 214 230 45 309 225 211 219 203 228 230
291 291 289 287 285 284 284 286 284 279 270 151 167 206 233 276 266 238 215 166 195 223 213 232 253 251 249 232 245 251 250 233 241 248 253 244 249 263 261 253 265 260 254 257 269 279 260 278 272 269 272 272 281 251 85 352 337 227 257 307 314 270 286 266 222 208 205 194 198 185 185 207 207 216 217 208 200 190 192 220 184 235 206 221 226 247 248
289 287 287 285 283 282 281 274 272 272 270 190 163 197 63 217 281 144 204 182 212 230 218 230 226 241 249 254 248 241 254 256 247 236 252 242 245 235 259 265 259 260 264 261 255 260 253 252 285 270 272 273 318 227 319 326 294 286 304 327 233 280 267 268 296 273 248 247 239 190 178 177 201 196 207 203 194 206 210 207 212 210 209 230 221 234 252
290 287 283 283 281 275 272 268 263 262 268 197 168 197 200 201 229 248 254 127 208 219 218 236 224 228 219 249 150 215 214 223 265 199 248 215 223 232 228 240 236 236 237 244 251 244 262 261 262 263 275 272 273 283 283 277 257 272 287 165 176 313 288 280 294 292 322 317 315 314 211 186 192 187 207 204 199 196 207 211 221 204 228 243 192 228 240
285 286 284 282 280 274 271 267 258 252 257 201 153 206 141 261 202 172 179 218 209 193 222 214 230 234 217 233 183 236 232 218 228 194 219 261 221 214 228 234 231 250 254 264 265 243 244 259 266 272 277 294 287 286 214 233 269 258 180 121 111 253 276 297 309 301 312 309 310 310 312 238 198 200 199 200 198 197 204 210 213 210 218 230 203 217 227
286 284 282 279 279 275 269 265 257 252 257 190 177 200 231 210 252 218 100 251 211 209 212 194 208 216 213 238 215 246 239 248 238 239 248 208 224 205 251 229 243 252 254 245 256 254 272 248 232 254 276 278 301 292 303 242 225 166 214 142 209 279 265 266 307 320 308 307 307 311 301 309 258 209 202 201 194 202 200 206 210 215 223 226 240 234 236
286 284 282 279 277 276 272 261 253 256 255 201 200 206 193 202 177 234 207 232 239 225 225 208 204 220 208 232 207 221 229 242 239 230 228 245 244 231 241 246 244 246 249 245 246 248 246 258 270 267 267 272 274 285 277 287 280 301 282 275 229 285 261 302 330 314 292 294 295 298 309 318 317 285 226 203 200 199 201 202 209 216 224 228 238 243 244
286 284 284 280 277 277 273 264 260 256 192 146 201 225 207 211 217 188 160 241 240 225 209 224 221 231 217 222 228 225 225 235 231 232 206 218 234 209 231 234 244 244 249 254 254 247 247 243 237 243 249 259 252 266 301 298 281 275 287 327 260 262 276 306 289 297 281 277 303 303 316 312 290 278 281 238 206 205 198 204 202 206 214 219 231 239 239
286 283 282 283 278 274 274 267 248 250 208 182 186 237 199 231 231 134 221 251 215 235 196 207 220 233 211 220 221 218 229 228 223 252 224 228 227 231 238 242 241 249 243 243 244 243 232 233 245 247 253 257 271 269 280 285 285 285 272 273 288 305 297 298 283 280 264 285 301 313 310 306 289 264 249 259 239 211 203 208 202 209 202 213 219 235 238
290 284 280 279 277 274 271 265 260 253 240 218 203 210 184 200 202 184 201 236 233 227 234 207 204 216 208 212 224 219 227 219 211 221 218 204 228 227 230 241 239 244 236 241 240 252 298 294 271 264 251 254 261 257 261 265 269 274 282 283 263 262 265 276 282 271 287 293 298 301 300 268 240 297 295 227 238 217 214 217 213 214 205 220 218 227 231
290 289 286 284 281 276 269 264 257 255 236 230 219 232 200 147 177 186 194 226 243 232 224 222 216 232 219 220 215 222 225 224 224 212 228 225 229 222 221 233 235 247 232 238 260 278 272 237 222 228 244 253 255 252 244 254 259 260 258 262 262 257 256 264 264 269 283 293 288 280 253 256 265 203 318 290 254 236 228 223 219 221 218 225 235 241 243
288 290 287 282 280 278 274 268 261 253 251 239 208 231 198 181 192 192 201 212 237 235 247 238 222 233 232 233 234 232 228 227 227 224 222 229 241 235 223 218 212 233 237 231 169 174 231 255 257 252 256 263 255 247 247 251 255 252 255 244 248 249 242 236 245 247 265 267 261 255 230 338 323 314 302 293 276 258 251 241 231 220 217 218 228 233 237
290 286 285 284 281 275 273 270 266 252 249 245 223 224 206 181 197 196 204 200 227 231 244 259 227 234 228 228 227 231 231 236 233 229 237 226 231 236 237 220 225 232 235 166 217 223 258 243 260 255 251 238 242 253 235 235 234 239 239 241 228 236 239 226 249 226 250 246 265 260 302 295 273 285 285 288 276 272 246 246 234 227 225 220 225 231 235
291 289 287 284 282 282 275 269 268 260 253 243 238 230 215 196 196 194 211 211 231 234 219 241 206 215 225 229 227 239 230 230 232 232 227 230 234 231 236 233 224 227 214 202 226 221 226 248 237 241 254 247 248 249 147 228 234 224 230 232 232 220 221 214 223 229 213 249 259 273 263 250 277 258 259 251 262 268 272 272 262 242 232 223 218 220 225
294 290 290 289 286 280 279 273 264 262 257 251 240 234 222 199 198 199 193 200 202 232 219 228 232 231 234 238 230 221 227 225 226 232 228 224 235 244 244 244 240 202 180 214 219 229 208 218 226 232 238 240 240 274 266 235 274 225 216 225 229 229 225 225 225 231 223 224 236 246 251 253 263 292 288 297 360 351 339 298 272 239 265 261 235 224 228
293 295 294 291 289 284 276 275 272 263 260 253 244 234 235 200 194 198 193 200 201 226 227 222 218 227 238 251 233 225 214 222 219 228 227 225 222 224 240 211 209 188 196 205 210 214 213 217 232 243 246 225 229 218 234 132 261 249 226 230 230 234 229 229 233 231 233 245 243 244 231 263 237 253 266 28 345 331 345 279 265 23 344 338 352 297 246
295 294 295 295 292 288 285 278 273 269 258 254 248 233 231 198 190 181 200 190 214 235 224 223 196 199 206 207 213 213 185 220 225 223 238 216 211 212 217 164 206 217 178 206 190 218 216 224 226 222 237 214 213 220 231 200 227 223 230 230 233 223 232 224 237 233 232 233 247 256 253 238 266 286 299 347 333 301 267 257 9 347 327 339 330 333 336
298 294 293 292 294 289 282 282 279 275 267 259 251 244 230 202 180 183 199 204 196 228 208 225 209 217 229 220 226 214 205 205 192 211 216 236 230 228 187 236 180 197 175 206 206 214 219 225 223 233 245 222 179 228 209 226 230 224 224 233 242 247 243 236 227 228 230 230 237 242 254 238 169 241 319 312 306 244 251 62 142 262 320 333 330 329 332
300 298 297 296 294 292 289 288 282 275 266 265 252 232 235 189 176 183 191 211 205 230 214 211 193 214 215 216 219 221 203 204 208 210 212 230 152 167 150 219 198 146 178 193 221 199 218 219 219 218 226 230 218 200 233 230 224 224 210 215 238 235 240 237 235 232 234 233 240 237 241 203 178 174 287 244 218 290 61 341 236 251 316 316 331 328 330
299 299 298 298 296 290 286 287 285 281 272 270 262 248 239 203 186 197 202 210 200 225 230 224 213 217 206 215 219 217 201 213 201 213 217 226 168 153 206 199 176 173 194 177 211 202 206 220 213 217 213 217 210 189 224 223 227 222 231 233 236 229 246 245 249 236 243 230 222 228 319 4 266 229 190 103 206 333 98 264 336 318 290 330 319 329 323
302 300 298 295 294 292 288 284 284 280 275 267 264 254 245 226 188 194 202 203 208 210 220 207 206 205 207 218 224 215 218 224 218 206 207 223 187 207 223 207 202 196 198 175 159 219 202 219 221 199 202 206 187 223 205 223 233 209 213 224 244 214 240 235 253 237 245 259 268 330 316 246 242 67 30 5 253 114 220 159 281 301 304 286 300 312 319
306 304 302 299 297 296 291 282 275 277 275 270 266 243 246 237 202 193 180 218 237 255 219 200 155 180 191 234 234 223 223 222 230 222 209 220 222 207 222 218 217 185 193 182 211 206 208 198 214 202 221 217 210 221 219 225 248 211 235 194 238 229 234 240 278 259 266 277 271 266 220 215 225 222 222 257 237 212 226 250 272 267 283 291 284 297 305
308 306 303 301 299 294 293 290 280 277 273 267 262 239 241 225 187 150 182 203 194 220 230 187 203 202 197 226 232 215 218 224 224 226 213 208 227 229 213 217 223 177 212 209 206 223 200 191 229 176 221 196 192 224 228 228 228 231 241 238 215 238 228 219 232 271 293 256 123 181 239 277 261 248 217 232 239 237 240 254 252 277 281 281 272 283 293
308 307 304 301 300 297 294 289 283 275 270 266 263 254 235 231 184 177 175 192 190 179 214 177 208 211 210 215 250 217 214 217 217 218 216 205 209 226 230 216 196 205 217 215 107 186 144 219 203 205 228 200 191 237 217 239 240 193 241 231 242 253 214 239 232 238 238 256 268 259 271 249 260 286 266 217 218 215 230 239 260 271 286 292 304 324 306
313 312 307 303 302 298 294 290 285 278 266 262 259 242 217 218 197 178 196 214 163 164 216 230 221 215 210 205 225 228 199 203 214 217 216 212 210 219 233 237 203 207 230 210 190 217 214 224 219 225 222 224 187 237 232 205 232 183 219 237 207 229 104 226 171 231 247 255 269 278 275 272 272 252 230 221 204 196 214 241 256 267 285 313 326 328 308
316 313 311 309 305 300 294 290 286 283 277 260 247 240 226 212 160 171 182 169 133 291 196 222 219 185 172 210 228 219 203 205 208 211 218 217 217 221 228 234 229 209 203 220 204 211 201 219 214 224 199 226 175 232 246 243 215 222 230 226 226 237 242 252 254 253 251 252 262 263 277 279 255 214 217 221 228 213 232 254 277 292 312 332 334 327 321
318 316 317 317 314 308 301 295 290 285 279 271 261 254 201 182 182 181 181 176 185 207 140 191 159 214 46 274 239 220 216 205 204 207 212 215 213 217 220 220 220 230 224 218 208 190 194 203 216 213 221 212 213 226 204 238 235 240 237 238 230 236 238 241 247 244 251 237 238 232 239 256 255 240 266 273 252 232 238 247 277 309 325 342 342 333 330
319 322 319 318 318 317 312 303 293 286 285 281 252 233 79 188 157 176 184 189 188 218 242 239 194 114 217 227 157 217 215 204 199 206 210 211 208 212 217 219 217 219 223 215 226 225 208 217 207 205 212 184 206 227 198 222 224 231 226 216 227 234 239 244 248 253 253 257 262 245 228 245 262 266 285 258 55 226 226 233 304 326 341 341 329 314 320
319 319 318 320 324 328 326 317 303 288 280 278 107 110 179 200 192 196 185 177 182 193 202 189 225 233 49 186 235 212 207 199 205 205 211 208 208 211 214 218 223 220 218 221 209 221 219 234 226 222 223 135 205 208 218 224 233 231 218 229 234 240 239 241 246 246 248 244 250 244 260 276 284 302 76 88 61 49 316 2 349 348 356 334 317 321 4
314 313 315 322 330 340 345 344 334 312 286 163 111 100 194 246 135 187 182 181 180 181 184 192 233 85 304 247 223 230 220 203 196 204 210 209 208 205 207 209 220 219 220 215 218 222 217 220 222 226 210 201 214 219 228 231 237 232 214 221 230 234 237 240 240 240 242 246 256 270 270 266 267 102 119 116 85 61 47 346 346 357 331 329 330 356 359
312 310 312 316 327 345 352 356 9 30 35 126 151 128 83 112 203 163 170 170 150 171 154 192 220 170 226 239 224 277 228 205 186 173 203 186 221 212 213 201 220 213 222 225 221 230 219 224 224 225 223 218 221 237 232 237 239 239 230 236 234 236 235 239 241 238 235 228 233 260 254 247 142 209 197 115 93 78 66 40 343 346 319 317 4 19 13
321 314 309 311 323 345 353 359 9 24 19 329 304 334 358 333 92 93 132 129 142 152 151 149 198 165 208 238 310 300 146 71 170 176 222 187 218 171 216 205 222 226 219 230 193 225 223 225 222 233 227 206 217 199 227 228 235 234 241 246 245 236 227 224 233 243 114 81 197 219 238 228 150 127 107 106 68 44 22 24 7 336 330 3 46 14 360
324 323 310 309 318 328 334 339 350 355 35 25 26 19 4 360 322 168 128 67 97 16 73 163 177 184 216 38 50 187 160 168 207 167 214 203 177 166 198 190 202 215 193 210 214 230 214 220 219 227 227 211 209 229 238 228 233 238 240 243 245 242 231 228 207 131 90 86 42 43 80 113 124 117 96 66 49 27 7 35 19 15 0 12 357 360 352
315 314 303 304 314 319 323 345 36 36 58 350 155 221 317 360 29 56 133 161 131 208 115 276 130 88 106 80 216 255 88 130 199 187 206 218 174 196 181 193 173 202 197 180 225 217 217 211 211 214 209 194 205 218 226 237 233 235 236 239 246 242 115 184 136 89 89 51 67 89 71 124 145 136 97 61 31 9 2 12 24 10 12 25 5 349 346
322 309 300 309 315 312 316 29 62 14 13 12 271 304 319 337 3 72 102 79 119 176 172 188 168 212 198 230 196 256 128 227 26 75 183 133 148 244 223 205 221 215 153 176 216 199 223 161 185 226 201 204 206 203 227 236 242 241 254 309 23 6 13 328 76 77 36 52 71 77 87 75 89 95 84 56 28 20 9 5 12 18 6 355 3 346 336
322 323 339 320 1 44 21 187 326 9 36 253 289 306 352 2 58 62 48 60 343 169 202 153 191 203 184 207 34 269 128 208 327 78 128 170 195 160 174 188 226 194 168 219 213 215 215 190 217 229 207 218 223 45 45 47 43 38 55 22 12 25 15 17 354 51 112 79 56 52 63 88 81 67 69 43 22 16 19 25 13 8 352 345 336 337 328
334 2 37 354 34 35 347 346 35 302 319 346 355 324 6 15 75 13 1 89 222 134 256 135 234 180 25 133 216 150 171 233 58 173 248 241 178 220 216 209 218 204 233 214 223 172 105 130 206 219 224 80 65 63 38 43 49 46 49 39 25 16 16 356 346 275 140 124 203 61 45 59 69 51 43 19 9 13 19 21 14 1 348 331 324 321 322
25 15 52 21 84 268 222 232 306 327 35 58 38 55 336 37 52 10 236 40 263 204 172 182 223 134 152 206 239 257 206 169 196 6 192 214 167 278 145 212 207 215 256 216 261 150 207 184 208 195 231 157 123 21 356 40 45 43 41 36 34 23 18 21 23 25 14 33 56 61 41 41 3 358 28 358 348 354 15 17 4 7 346 329 324 325 326
0 14 350 9 304 243 17 329 344 9 2 0 342 100 129 335 91 257 326 96 240 253 147 215 189 167 184 208 210 234 134 132 194 211 192 284 190 201 227 30 267 217 227 200 225 113 212 185 206 148 229 72 43 29 14 31 42 34 32 22 26 26 27 32 27 22 41 54 52 53 43 39 39 35 11 356 340 344 354 360 1 354 349 332 330 333 328
351 305 316 299 271 279 286 305 348 53 68 78 17 44 79 356 32 133 288 115 239 231 341 255 357 319 181 191 189 244 216 201 7 115 137 207 215 79 98 198 224 201 256 237 299 94 116 180 145 209 94 35 26 25 25 35 34 31 28 20 21 19 22 29 31 25 28 39 38 30 26 20 25 18 25 23 39 357 344 347 353 353 349 346 338 328 324
304 286 248 263 240 332 327 14 67 155 143 128 115 306 319 248 16 9 162 192 250 278 7 358 300 274 2 344 237 233 250 133 148 192 197 233 202 165 218 253 335 197 241 230 106 63 128 179 197 219 97 35 30 7 24 25 25 23 28 21 18 19 12 17 23 30 27 26 17 13 11 12 17 35 31 26 13 13 1 359 349 350 349 335 330 328 332
313 306 124 42 346 342 89 23 289 121 153 194 98 257 9 22 221 163 274 349 213 174 299 229 265 296 265 291 258 204 224 210 201 172 181 219 114 89 150 148 91 189 215 43 79 87 174 183 218 64 51 4 359 359 11 14 346 19 34 31 17 18 15 13 14 9 17 16 11 9 6 17 43 40 40 37 29 30 13 358 345 343 336 336 335 336 341
291 333 337 359 35 292 38 309 37 56 330 52 108 251 339 17 316 20 25 11 336 351 15 348 349 357 116 20 349 261 239 258 201 152 222 26 88 221 140 190 203 247 42 52 84 157 201 69 19 19 273 302 293 356 350 351 350 349 13 19 16 10 8 17 16 17 14 13 16 2 29 40 48 42 34 39 38 33 0 355 350 347 338 341 338 343 342
2 338 32 11 32 276 52 250 356 104 53 318 0 109 116 26 320 285 18 10 315 333 332 345 342 342 280 301 99 295 321 286 340 106 211 122 143 171 161 234 201 40 117 200 313 308 19 68 69 4 13 8 339 318 334 344 341 356 337 339 13 7 7 8 9 349 6 3 1 352 25 24 44 40 45 40 34 34 25 5 347 350 348 345 340 349 346
52 152 66 72 341 338 94 172 353 42 29 29 11 336 342 342 334 32 19 355 315 336 348 331 320 303 262 299 60 327 359 353 347 255 43 285 144 226 202 81 62 86 62 67 86 70 28 335 5 27 42 340 298 321 340 337 344 338 19 15 339 343 348 338 339 0 358 356 350 15 18 21 30 33 43 37 34 23 22 6 4 2 350 353 356 348 346
53 21 100 134 101 273 69 63 13 25 298 340 339 287 323 13 110 26 42 347 299 316 290 278 238 264 345 322 349 340 54 38 130 268 51 40 186 263 24 149 211 9 131 204 42 33 328 32 24 18 12 32 13 354 6 5 13 21 11 355 348 340 348 355 348 357 344 336 359 18 16 12 10 22 55 50 37 29 19 12 6 1 4 354 343 349 354
12 278 64 88 51 28 41 12 176 135 46 326 329 339 325 264 47 7 357 350 298 301 316 331 359 347 314 285 99 257 305 260 50 306 143 268 14 43 16 37 60 61 32 75 72 349 15 36 8 34 49 54 0 8 24 14 4 6 3 356 354 350 347 350 349 344 349 355 350 357 8 14 26 40 57 70 59 34 23 16 10 8 10 3 359 7 10
141 90 66 114 166 69 36 323 53 61 4 0 4 30 16 21 21 329 330 325 333 324 280 3 332 70 290 288 48 332 56 345 65 281 8 25 69 297 136 188 50 52 27 37 0 43 11 17 0 309 334 23 40 39 19 358 343 5 360 352 335 319 317 323 334 329 338 353 350 351 358 1 27 41 49 66 68 40 24 23 23 20 19 16 11 17 19
52 30 27 16 350 41 14 37 70 41 3 12 19 14 351 10 2 338 355 333 332 311 292 203 220 275 260 32 345 359 295 331 58 347 62 35 3 321 67 54 313 136 39 28 3 20 8 5 340 344 1 355 359 24 4 351 6 6 339 316 316 344 356 336 342 10 11 352 350 2 350 4 10 10 31 33 52 37 32 33 23 19 16 18 24 27 27
53 92 78 17 30 307 345 40 17 19 7 11 7 354 359 349 350 316 357 334 320 331 35 58 322 22 1 19 52 49 305 223 35 42 87 82 320 63 65 119 88 0 352 28 323 328 333 349 347 351 359 1 359 345 343 334 339 332 325 348 347 350 359 13 12 18 14 8 4 16 16 6 359 12 12 37 41 41 36 32 24 13 16 22 32 34 36
35 48 44 68 54 30 354 81 86 69 94 14 20 345 350 359 336 308 329 323 336 63 8 280 28 10 53 57 245 234 301 26 50 67 52 15 12 58 46 27 348 355 332 321 347 9 356 354 3 352 343 349 350 344 326 333 0 8 12 5 3 11 13 12 21 25 26 20 19 16 10 8 11 10 19 41 40 40 34 22 9 7 16 24 19 36 51